Location: Cosy Dell
(34.2789°N, 117.4537°W)
Time: 21:19:22
(UTC+00:00)

CZ-2C R/B - Pass Details

Date: 14 July 2020
Orbit: 640 x 704 km, 98.4° (Epoch: 13 August)

Event Time Altitude Azimuth Distance (km) Brightness Sun altitude
Rises 04:09:39 0° 8° (N) 3,099 7.6 -12.5°
Reaches altitude 10° 04:11:56 10° 5° (N) 2,176 6.8 -12.9°
Maximum altitude 04:16:39 63° 286° (WNW) 782 4.3 -13.6°
Drops below altitude 10° 04:21:18 10° 205° (SSW) 2,143 6.2 -14.4°
Sets 04:23:32 0° 202° (SSW) 3,049 6.9 -14.7°
